Date,TemperatureHighF,TemperatureAvgF,TemperatureLowF,DewpointHighF,DewpointAvgF,DewpointLowF,HumidityHigh,HumidityAvg,HumidityLow,PressureMaxIn,PressureMinIn,WindSpeedMaxMPH,WindSpeedAvgMPH,GustSpeedMaxMPH,PrecipitationSumIn
2013-2-1,45,38,26,29,24,15,68,57,50,29.67,29.44,9,2,9,0.00
2013-2-2,44,33,23,28,21,14,69,61,52,29.77,29.66,6,1,6,0.00
2013-2-3,46,36,22,30,23,12,68,59,51,29.72,29.37,2,0,1,0.00
2013-2-4,46,41,35,31,27,22,65,57,54,29.38,29.34,6,0,6,0.00
2013-2-5,50,41,30,35,28,20,69,60,52,29.38,29.19,9,0,9,0.00
2013-2-6,46,37,29,31,24,18,67,59,48,29.45,29.25,10,1,10,0.00
2013-2-7,43,35,23,26,22,13,67,58,50,29.43,29.27,10,1,10,0.00
2013-2-8,41,30,18,25,18,9,69,60,50,29.38,29.30,6,1,6,0.00
2013-2-9,37,25,15,23,16,6,83,67,51,29.40,29.23,10,0,10,0.00
2013-2-10,30,24,8,22,16,0,83,70,61,29.56,29.39,9,1,9,0.00
2013-2-11,35,26,10,23,16,0,74,66,59,29.49,29.41,5,1,5,0.03
2013-2-12,43,38,26,29,26,11,75,61,53,29.57,29.41,12,1,12,0.06
2013-2-13,38,37,34,25,20,20,62,52,49,29.52,29.42,12,3,12,0.00
2013-2-14,38,32,23,26,21,15,71,63,53,29.75,29.52,12,1,12,0.00
2013-2-15,44,34,20,28,21,10,68,61,51,29.81,29.60,7,1,7,0.03
2013-2-16,52,35,21,34,23,13,73,63,46,29.61,29.18,9,1,9,0.00
2013-2-17,39,34,28,25,21,18,70,60,51,29.40,29.21,12,1,12,0.00
2013-2-18,37,28,17,21,16,8,70,59,50,29.48,29.25,8,0,8,0.03
2013-2-19,43,34,22,27,20,10,63,56,51,29.27,29.09,5,0,5,0.00
2013-2-20,40,32,19,28,21,9,69,64,58,29.31,29.16,5,0,5,0.00
2013-2-21,36,28,9,17,13,1,70,55,45,29.41,29.26,9,1,9,0.00
2013-2-22,45,38,21,26,21,11,64,51,44,29.36,29.08,9,1,9,0.00
2013-2-23,38,33,28,24,17,13,70,52,39,29.44,29.05,13,2,13,0.00
2013-2-24,37,28,17,18,13,6,61,53,42,29.59,29.43,9,1,9,0.00
2013-2-25,44,35,20,29,21,10,69,57,47,29.44,29.24,9,1,9,0.00
2013-2-26,39,34,24,22,17,10,65,51,44,29.58,29.36,9,2,9,0.00
2013-2-27,43,35,20,23,18,8,63,50,42,29.68,29.53,11,1,11,0.00
2013-2-28,38,36,22,24,22,8,59,58,56,29.64,29.60,6,1,0,0.00